www.pogodaiklimat.ru

Погода и климат >> Архив погоды >> Нигер >> Майне-Сороа


ПОГОДА в Майне-Сороа

  • Прогноз погоды в Майне-Сороа
  • Монитор погоды в Майне-Сороа

АРХИВ ПОГОДЫ в Майне-Сороа

Время (UTC), дата Ветер
(напр.,м/с)
 
Видим.   Явления Облачность Т
(С)
Тd
(С)
f
(%)
Тe
(С)
Тes
(С)
Комфортность P
(гПа)
Po
(гПа)
Тmin
(С)
Tmax
(С)
R
(мм)
R24
(мм)
S
(см)
21 10.02 СВ 4 4000 м пыль 9/0
[Cs]
+23.5 -4.7 15 +22 +22 комфорт 1014.3 976.1
00 11.02 СВ 6 1000 м пыль 9/0
[Cs]
+21.5 -5.0 16 +20 +20 1013.9 976.0
03 11.02 СВ 6 600 м пыль {туман} 9/0
[Cs]
+20.5 -5.1 17 +20 +20 1012.9 975.0
06 11.02 СВ 4 300 м пыль {туман} 9/0
[Cs]
+18.0 -4.0 22 +18 +18 1014.2 975.8 +17.9
09 11.02 В 4 2000 м пыль {туман} 9/0
[Cs]
+21.6 -0.8 22 +21 +28 комфорт 1015.8 977.4
12 11.02 СВ 6 6000 м пыль {туман} 9/0
[Cs]
+27.7 +0.1 17 +26 +31 жарко 1012.9 974.9
15 11.02 СВ 6 4000 м пыль 9/0
[Cs]
+29.4 -2.6 12 +26 +28 жарко 1010.3 972.5
18 11.02 СВ 2 6000 м пыль 9/0
[Cs]
+26.0 -8.8 9 +23 +23 комфорт 1012.2 973.9 +30.5
21 11.02 СВ 2 10 км 9/0
[Cs]
+21.8 -2.4 20 +21 +21 комфорт 1014.1 975.7
00 12.02 СВ 4 800 м пыль {туман} 9/0
[Cs]
+21.5 -5.0 16 +20 +20 1013.8 975.8
03 12.02 СВ 4 400 м пыль {туман} 9/0
[Cs]
+19.5 -4.7 19 +19 +19 1013.1 975.1
06 12.02 СВ 4 300 м пыль {туман} 9/0
[Cs]
+16.0 -4.0 25 +15 +16 1014.0 975.5 +15.9
09 12.02 В 10 500 м пыль {туман} 9/0
[Cs]
+22.7 -5.4 15 +21 +21 комфорт 1015.2 976.8
12 12.02 СВ 4 3500 м пыль {туман} 9/0
[Cs]
+28.8 +0.7 16 +26 +36 жарко 1012.8 974.9
15 12.02 СВ 4 10 км 9/0
[Cs]
+30.0 -1.4 13 +27 +30 жарко 1011.0 973.1
18 12.02 СВ 4 10 км 9/0
[Cs]
+26.0 -2.9 15 +22 +22 комфорт 1012.9 974.5 +31.5
21 12.02 СВ 4 10 км 9/0
[Cs]
+21.6 -5.3 16 +20 +20 1014.7 976.7
00 13.02 СВ 4 10 км 9/0
[Cs]
+18.6 -5.5 19 +18 +18 1014.0 975.9
03 13.02 С 2 10 км 6/0
[Ci sp]
+16.6 -5.4 22 +17 +17 1013.5 975.3
06 13.02 СВ 2 15 км 9/0
[Cs]
+15.0 -6.2 23 +15 +15 1014.9 976.3 +14.8
09 13.02 В 6 12 км 9/0
[Cs]
+25.0 -3.2 15 +23 +27 комфорт 1016.9 978.6
12 13.02 В 6 15 км 9/0
[Cs]
+29.2 -8.0 8 +25 +31 комфорт 1014.9 976.8
15 13.02 СВ 6 4500 м пыль 9/0
[Cs]
+29.6 -5.3 10 +26 +28 жарко 1012.8 974.6
18 13.02 СВ 6 4000 м пыль 9/0
[Cs]
+26.5 -4.0 13 +24 +24 комфорт 1014.8 976.3 +31.4
21 13.02 СВ 4 6000 м пыль 9/0
[Cs]
+23.2 -0.9 20 +22 +22 комфорт 1014.9 976.8
00 14.02 СВ 2 10 км 9/0
[Cs]
+20.8 -1.3 23 +21 +21 комфорт 1013.6 977.6
03 14.02 СВ 6 4000 м пыль 9/0
[Cs]
+18.5 -0.9 27 +18 +18 1015.5 977.3
06 14.02 СВ 6 6000 м пыль 9/0
[Cs]
+16.0 -0.1 33 +15 +15 1018.2 979.6 +15.6
09 14.02 СВ 6 4500 м пыль 9/0
[Cs]
+19.8 -5.6 17 +19 +23 1020.2 981.6
12 14.02 СВ 4 6000 м пыль 9/0
[Cs]
+25.6 -6.3 12 +23 +33 комфорт 1018.2 979.9
15 14.02 СВ 2 10 км 9/0
[Cs]
+27.5 -14.2 6 +24 +28 комфорт 1014.7 976.7
18 14.02 СВ 2 10 км 9/0
[Cs]
+24.0 -6.0 13 +22 +22 комфорт 1016.1 977.4 +28.7
21 14.02 СВ 2 10 км 9/0
[Cs]
+19.8 -1.5 24 +20 +20 1017.8 979.0
00 15.02 СВ 4 4000 м пыль 9/0
[Cs]
+19.0 +3.3 35 +19 +19 1017.8 979.4
03 15.02 СВ 6 800 м пыль {туман} 9/0
[Cs]
+19.4 +2.8 33 +19 +19 1017.4 979.1
06 15.02 СВ 4 200 м пыль {туман} 9/0
[Cs]
+17.8 -5.6 20 +18 +18 1019.6 980.9 +17.6
09 15.02 СВ 6 6000 м пыль {туман} 9/0
[Cs]
+20.8 -9.0 13 +20 +24 1021.4 982.6
12 15.02 СВ 6 8000 м пыль {туман} 9/0
[Cs]
+25.4 -6.9 11 +23 +28 комфорт 1018.3 979.9
15 15.02 СВ 6 8000 м пыль 9/0
[Cs]
+26.5 -7.0 10 +23 +25 комфорт 1015.8 977.5
18 15.02 СВ 2 10 км 9/0
[Cs]
+23.5 -7.6 12 +21 +21 комфорт 1016.3 977.7 +28.2
21 15.02 СВ 4 10 км 9/0
[Cs]
+20.0 -6.6 16 +20 +20 1017.9 979.3
00 16.02 СВ 4 10 км 9/0
[Cs]
+18.0 -6.6 18 +18 +18 1017.3 978.8
03 16.02 СВ 4 2000 м пыль 9/0
[Cs]
+17.6 -8.2 16 +17 +17 1017.0 978.6
06 16.02 СВ 4 600 м пыль {туман} 9/0
[Cs]
+15.5 -3.0 28 +15 +15 1018.5 979.7 +15.2
09 16.02 СВ 4 600 м пыль {туман} 9/0
[Cs]
+21.6 -8.3 13 +20 +27 1020.2 981.5
12 16.02 В 6 4000 м пыль {туман} 9/0
[Cs]
+26.4 -3.9 13 +24 +30 комфорт 1017.4 978.9
15 16.02 СВ 6 10 км 9/0
[Cs]
+27.2 +3.1 21 +26 +27 жарко 1015.7 977.4
18 16.02 СВ 4 10 км 9/0
[Cs]
+23.5 -2.4 18 +22 +22 комфорт 1015.3 976.6 +28.6
21 16.02 В 2 10 км 9/0
[Cs]
+19.5 -5.3 18 +20 +20 1017.2 978.6
03 17.02 СВ 4 4000 м пыль 9/0
[Cs]
+16.2 -8.6 17 +16 +16 1015.8 977.4
06 17.02 СВ 4 300 м пыль {туман} 9/0
[Cs]
+13.6 -7.5 22 +13 +13 1016.5 977.6 +13.4
09 17.02 В 6 2000 м пыль {туман} 9/0
[Cs]
+21.6 -8.3 13 +20 +24 1018.7 980.0
12 17.02 В 4 10 км 9/0
[Cs]
+27.6 -14.7 5 +24 +33 комфорт 1015.9 977.6
15 17.02 В 4 15 км 9/0
[Cs]
+29.0 -6.8 9 +25 +28 комфорт 1012.9 974.4
18 17.02 СВ 2 15 км 9/0
[Cs]
+25.0 -2.7 16 +23 +23 комфорт 1014.1 975.5 +30.4

 

Местоположение метеостанции Майне-Сороа (Нигер): широта 13.23 долгота 11.98 высота над уровнем моря 337 м.

В архиве по умолчанию представлена погода в Майне-Сороа за последнюю неделю. Архивные данные за месяц целиком и за предыдущие месяцы, начиная с января 2011 года, Вы можете получить, выбрав интересующий диапазон дат из раскрывающегося списка и нажав кнопку "Ввод!".


*Определитесь, кто Вы:
робот инопланетянин человек

Внимание! Время в таблицах - всемирное. Для получения местного времени необходимо прибавить поправку, которая равна 1 ч.

Смотрите также архив погоды в соседних городах и на ближайших метеорологических станциях:

Погода в Диффе (Нигер) (89 км)
Погода в Нгигми (Нигер) (167 км)
Погода в Гуре (Нигер) (200 км)
Погода в Бол-Бериме (Чад) (300 км)
Погода в Зиндере (Нигер) (330 км)
Погода в Магарьа (Нигер) (332 км)
Погода в Нджамене (Чад) (353 км)
Погода в Mao (Чад) (377 км)
Погода в Кано (Нигерия) (397 км)
Погода в Йоле (Нигерия) (448 км)

Пояснения к столбцам:

Ветер - указаны скорость ветра в м/с - средняя за 10 мин, порывы в срок и между сроками (в фигурных скобках) и направление, откуда дует ветер: С - северный, СВ - северо-восточный, В - восточный, ЮВ - юго-восточный, Ю - южный, ЮЗ - юго-западный, З - западный, СЗ - северо-западный.
Видимость - горизонтальная дальность видимости в метрах или километрах. При видимости от 1 до 10 км при отсутствии осадков обычно наблюдается дымка, при ухудшении видимости до 1 км и менее - туман. В сухую погоду видимость может ухудшаться дымом, пылью или мглою.
Явления - указаны атмосферные явления, наблюдавшиеся в срок или в последний час перед сроком; фигурными скобками обозначены явления, наблюдавшиеся между сроками (за 1-3 часа до срока); квадратными скобками обозначены град или гололедные отложения с указанием их диаметра в мм.
Облачность - указаны через наклонную черту общая и нижняя облачность в баллах и высота нижней границы облаков в метрах; квадратными скобками обозначены формы облаков: Ci - перистые, Cs - перисто-слоистые, Cc - перисто-кучевые, Ac - высококучевые, As - высокослоистые, Sc - слоисто-кучевые, Ns - слоисто-дождевые, Cu - кучевые, Cb - кучево-дождевые. Подробнее классификацию облаков см. в Атласе облаков (PDF).
T - Температура воздуха - температура, измеренная на высоте 2 м над землей.
Td - Температура точки росы - температура, при понижении до которой содержащийся в воздухе водяной пар достигнет насыщения.
f - Относительная влажность воздуха - влажноcть воздуха, измеренная на высоте 2 м над землей.
Te - Эффективная температура - температура, которую ощущает одетый по сезону человек в тени. Характеристика душности погоды. При расчете учитывается влияние влажности воздуха и скорости ветра на теплоощущения человека.
Tes - Эффективная температура на солнце - температура, которую ощущает человек, с поправкой на солнечный нагрев. Характеристика знойности погоды. Зависит от высоты солнца над горизонтом, облачности и скорости ветра. Ночью, в пасмурную погоду, а также при ветре 12 м/с и более поправка равна нулю.
P - Атмосферное давление - приведенное к уровню моря атмосферное давление.
Po - Атмосферное давление - измеренное на уровне метеостанции атмосферное давление.
Tmin - Минимальная температура - минимум температуры воздуха на высоте 2 м над землей.
Tmax - Максимальная температура - максимум температуры воздуха на высоте 2 м над землей.
R - Количество осадков - Количество выпавших осадков за период времени, мм. При наведении курсора мыши на число - период времени, за который выпало указанное количество осадков.
R24 - Количество осадков - Количество выпавших осадков за 24 часа, мм.
S - Снежный покров - Высота снежного покрова, см. При наведении курсора мыши на число - состояние снежного покрова и степень покрытия местности в баллах.